User: anonymous   Login
Location: Unspecified
(0.0000°N, 0.0000°E)
Time: 00:48:55
(UTC+00:00)
Language:

QUETZSAT 1 - Orbit

View from above orbital plane
View from above orbital plane
View from above satellite
View from above satellite

Ground track
Ground track

The orbit is defined by the following mean orbital elements,

1 37826U          26145.49719830 +.00000000 +00000-0 +00000-0 0 00008
2 37826   0.0583  80.4796 0002730 339.3675 285.2262  1.00272309    07
Epoch (UTC): 25 May 2026 11:55:57
Eccentricity: 0.0002730
inclination: 0.0583°
perigee height: 35775 km
apogee height: 35798 km
right ascension of ascending node: 80.4796°
argument of perigee: 339.3675°
revolutions per day: 1.00272309
mean anomaly at epoch: 285.2262°

The dashed part of the orbit path shows where the satellite is in the earth's shadow,  

DLR